Ljubljana Jože Pučnik Airport

Jump to: basic info | weather | frequencies | runways | comments

Related pages: nearby airports | nearby navaids | notams | map

Basic information (top)

Codes: LJU LJLJ
Location: lon 46.223701, lat 14.457600, elev 1,273 ft / 388 m msl
Status: large_airport
Scheduled airline service: yes
Links: Wikipedia Mobile

Weather (top)

Current conditions (rec'd 2014/10/25 01:00Z):

LJLJ 250100Z 14004KT 110V170 9999 OVC017 08/05 Q1021 NOSIG

Airport forecast (rec'd 2014/10/24 21:06Z):

TAF LJLJ 242000Z 2421/2521 VRB02KT 9999 OVC017 
      TEMPO 2421/2521 13005KT BKN030 PROB30 
      TEMPO 2421/2503 7000 -RA 
      TEMPO 2510/2518 FEW035 PROB30 
      TEMPO 2518/2521 3500 BR BKN005

Frequencies (top)

Verify before use: may be inaccurate or out of date.

A/D: 135.275 MHz (APP)
ATIS: 128.175 MHz (also on VOR DOL 112.700)
GND: 121.625 MHz ()
HANDLING & GA: 131.4 MHz ()
TWR: 118 MHz (TWR)

Runways (top)

13/31: 10,827 x 148 ft (3,300 x 45 m) — paved — lighted

Latest comments (top)

I wish more were like that: It's small, it's cosy, it's convenient. ... [read]

an experience: I too managed to land here from ... [read]

Small airport without hassles: Managed to land here in a snowstorm in ... [read]

More... (top)

See also NOTAMs and nearby airports and navaids, or visit the Ljubljana Jože Pučnik Airport page at the main OurAirports website..